Tracking 28790 objects as of 18-Apr-2024
HD Live streaming from Space Station
objects crossing your sky now

USA 236

Track USA 236 now!
USA 236 is classified as:


NORAD ID: 38466
Int'l Code: 2012-033A
Perigee: 35,768.0 km
Apogee: 35,820.4 km
Inclination: 5.7 °
Period: 1,436.1 minutes
Semi major axis: 42165 km
RCS: Unknown
Launch date: June 20, 2012
Source: United States (US)
Launch site: AIR FORCE EASTERN TEST RANGE (AFETR)

NROL-38 (USA 236) is a classified satellite.
Your satellite tracking list
Your tracking list is empty




NASA's NSSDC Master Catalog

Two Line Element Set (TLE):
1 38466U 12033A   24007.02336731 0.00000000  00000-0  00000-0 0    07
2 38466   5.6644  90.5159 0006214 206.7191 153.2786  1.00270000    04
Source of the keplerian elements: McCants